Hourly Data Report for October 14, 2015

All times are specified in Local Standard Time (LST). Add 1 hour to adjust for Daylight Saving Time where and when it is observed.

CAPE DORSET A
NUNAVUT

64°13'49.000" N
76°31'30.000" W
48.20 m
2400637
71366
YTE

Download Data

Hourly Data (October 2015)
Hourly Data Report for October 14, 2015
Temp Definition
°C
Dew Point Temp Definition
°C
Rel Hum Definition
%
Wind Dir Definition
10's deg

Wind Spd Definition
km/h
Visibility Definition
km
Stn Press Definition
kPa
Hmdx Definition


Wind Chill Definition


Weather Definition


TIME
00:00 Legend Double Dagger -5.3 -9.6 72 27 24 16.1 99.39   -13 Snow
01:00 Legend Double Dagger -5.3 -9.4 73 29 32 16.1 99.39   -14 LegendNANA
02:00 Legend Double Dagger -5.7 -9.8 73 29 22 16.1 99.42   -13 LegendNANA
03:00 Legend Double Dagger -5.9 -9.1 78 28 17 16.1 99.41   -12 LegendNANA
04:00 Legend Double Dagger -5.4 -8.8 77 28 24 16.1 99.38   -13 Snow
05:00 Legend Double Dagger -5.2 -9.3 73 27 18 16.1 99.39   -11 LegendNANA
06:00 Legend Double Dagger -5.1 -10.1 68 27 22 16.1 99.39   -12 Snow
07:00 Legend Double Dagger -5.3 -9.1 75 28 28 16.1 99.39   -13 Snow
08:00 Legend Double Dagger -5.4 -9.9 71 28 17 16.1 99.38   -11 Snow
09:00 Legend Double Dagger -5.5 -10.0 71 27 22 16.1 99.38   -13 Snow
10:00 Legend Double Dagger -5.2 -9.2 73 26 15 16.1 99.36   -11 Snow
11:00 Legend Double Dagger -5.5 -6.9 90 27 21 4.0 99.35   -12 Snow
12:00 Legend Double Dagger -4.8 -7.9 79 28 21 16.1 99.34   -11 Snow
13:00 Legend Double Dagger -4.4 -8.6 73 28 22 16.1 99.33   -11 LegendNANA
14:00 Legend Double Dagger -5.1 -8.0 80 29 18 16.1 99.36   -11 LegendNANA
15:00 Legend Double Dagger -5.1 -9.5 71 27 22 16.1 99.37   -12 LegendNANA
16:00 Legend Double Dagger -5.3 -9.6 72 26 26 16.1 99.36   -13 Snow
17:00 Legend Double Dagger -5.0 -7.8 81 26 28 16.1 99.34   -13 LegendNANA
18:00 Legend Double Dagger -4.4 -6.2 87 29 26 16.1 99.39   -12 LegendNANA
19:00 Legend Double Dagger -4.6 -7.1 83 28 28 16.1 99.40   -12 LegendNANA
20:00 Legend Double Dagger -4.6 -6.5 87 28 30 16.1 99.37   -12 LegendNANA
21:00 Legend Double Dagger -4.1 -6.4 84 28 34 16.1 99.34   -12 LegendNANA
22:00 Legend Double Dagger -3.9 -5.5 89 28 39 16.1 99.30   -13 LegendNANA
23:00 Legend Double Dagger -3.2 -4.9 88 28 35 16.1 99.28   -11 LegendNANA

Notes on Data Quality.

Legend

  • E = Estimated
  • M = Missing
  • NA = Not Available
  • ‡ = Partner data that is not subject to review by the National Climate Archives
Date modified: